sat.trackr.live / text

‹ back to catalog

STARLINK-31926

NORAD 59879 · 2024-098X

PAYLOAD ACTIVE UNKNOWN

§ Identity

Operator
Country
US
Launch date
2024-05-24
Launch site
AFETR
Launch vehicle
Mass (kg)
RCS (m²)

Purposes: comms

External: N2YO · Heavens-Above · Gunter

§ Orbital elements

Epoch: 2026-09-21T00:07:04.000224Z

Period
94.27 min
Inclination
43.0039°
Eccentricity
0.0001186
Mean motion
15.27575318 rev/d
Perigee alt
482.2 km
Apogee alt
483.9 km
Semi-major
6,861.2 km
B*
2.9021e-5
RAAN
244.4552°
Arg perigee
263.4513°
Mean anomaly
96.6204°
Rev number
13,183

§ Raw data

STARLINK-319261 59879U 24098X   26264.00490741  .00000536  00000+0  29021-4 0  99972 59879  43.0039 244.4552 0001186 263.4513  96.6204 15.27575318131832

JSON: /api/v1/satellites/59879 · /tle

For live sub-satellite position, see the globe view (requires WebGL).

§ Visibility from observer

Set your observer location to see the next 7 days of passes ≥ 10°. The values pass through the URL so the page stays shareable.

No JS? Fill the form by hand. The geolocation button needs JavaScript.